Weather Service Report


809 
FPUS83 KFGF 221310
OPUFGF
PRAIRIE TO PINES WEATHER ROUNDUP
NATIONAL WEATHER SERVICE EASTERN NORTH DAKOTA/GRAND FORKS ND
800 AM CDT MON SEP 22 2014

 **SATELLITE DATA USED TO AUGMENT SKY COVER AT AUTOMATED STATIONS**
 *****  WEATHER ACROSS EASTERN NORTH DAKOTA  *****
  
CITY           SKY/WX    TMP DP  RH WIND       PRES   REMARKS
GRAND FORKS    CLEAR     47  44  90 S6        30.14S                  
GRAND FORKS AF CLEAR     51  48  89 SW6       30.14S                  
GRAND CITY NWS NOT AVBL                                               
BUXTON         NOT AVBL                                               
DEVILS LAKE    CLEAR     55  43  62 SW9       30.13S                  
FARGO          CLEAR     48  45  89 S8        30.19S                  
WAHPETON ARPT  SUNNY     43  41  93 SE5       30.22S                  
$$

 *****  WEATHER ACROSS CENTRAL AND WESTERN NORTH DAKOTA  *****
  
CITY           SKY/WX    TMP DP  RH WIND       PRES   REMARKS
JAMESTOWN      CLEAR     43  41  93 CALM      30.17S                  
BISMARCK       CLEAR     45  42  89 NE7       30.15F                  
MINOT          CLEAR     50  40  68 W3        30.09F                  
MINOT AFB      CLEAR     47  42  84 S5        30.09F                  
GARRISON         N/A     46  42  86 CALM      30.12F                  
WILLISTON      CLEAR     39  35  86 N3        30.05F                  
DICKINSON      CLEAR     47  39  74 S12       30.06F                  
HETTINGER      CLEAR     47  38  71 E3        30.10F                  
$$

 *****  OTHER OBSERVATIONS NORTHEAST NORTH DAKOTA  *****
  
CITY           SKY/WX    TMP DP  RH WIND       PRES   REMARKS
WALHALLA         N/A     57  46  67 W6        30.10S                  
LANGDON        FAIR      45  41  87 SW8       30.12F                  
CAVALIER       FAIR      54  46  76 SW5       30.10F                  
GRAFTON        FAIR      41  41 100 S5        30.12S                  
CANDO          FAIR      41  39  93 CALM      30.14S                  
FORT TOTTEN      N/A     49  44  83 S6        29.95S                  
ROLLA          FAIR      48  43  81 SW9       30.13S                  
RUGBY          FAIR      46  43  87 S5        30.12F                  
 ***** THE ABOVE OBSERVATIONS ARE NON NWS ARE NOT QUALITY
        CONTROLLED AND MAY MIS-REPORT RAIN FOR SNOW...
$$

 *****  OTHER OBSERVATIONS SOUTHEAST NORTH DAKOTA *****
  
CITY           SKY/WX    TMP DP  RH WIND       PRES   REMARKS
COOPERSTOWN    NOT AVBL                                               
VALLEY CITY    FAIR      43  43 100 S5        30.18F                  
OAKES            N/A     41  41 100 S5        30.21S                  
GWINNER        SUNNY     46  46 100 SW9       30.22F                  
BUFFALO        NOT AVBL                                               
WYNDMERE         N/A     46  48 100 SW3         N/A                   
 ***** THE ABOVE OBSERVATIONS ARE NON NWS ARE NOT QUALITY
       CONTROLLED AND MAY MIS-REPORT RAIN FOR SNOW...
$$

  *****  WEATHER ACROSS NORTHERN MINNESOTA  *****     
  
CITY           SKY/WX    TMP DP  RH WIND       PRES   REMARKS
FLAG ISLAND    CLEAR     52  46  82 SW15      30.07F                  
WARROAD        CLEAR     48  45  87 SW9       30.12F                  
ROSEAU         CLEAR     46  41  81 S7        30.13S                  
HALLOCK        CLEAR     46  45  93 S7        30.12S                  
THF RVR FALLS  CLEAR     46  45  93 S8        30.16S                  
HALSTAD          N/A     46  45  96 S6          N/A                   
FOSSTON        CLEAR     45  45 100 S9        30.19S                  
BAUDETTE       CLEAR     49  46  90 SW7       30.13S                  
WASKISH        CLEAR     45  45 100 CALM      30.16S                  
CROOKSTON      CLEAR     46  45  93 S7        30.17S                  
$$
  *****  WEATHER ACROSS CENTRAL AND WEST MINNESOTA  *****     
  
CITY           SKY/WX    TMP DP  RH WIND       PRES   REMARKS
BEMIDJI        CLEAR     47  46  93 SW7       30.18S                  
PARK RAPIDS    CLEAR     46  45  96 SW6       30.21S                  
WADENA         CLEAR     39  39 100 CALM      30.23S                  
DETROIT LAKES  CLEAR     50  46  87 SW3       30.22S                  
MOORHEAD       CLEAR     46  46 100 S7        30.21S                  
FERGUS FALLS   CLEAR     46  45  93 SE5       30.24S                  
ELBOW LAKE     FAIR      45  44  97 SE5       30.23F                  
MORRIS MN      CLEAR     45  45 100 S5        30.24S                  
STAPLES        CLEAR     39  39 100 CALM      30.23S                  
WHEATON        CLEAR     45  43  93 S5        30.25S                  
$$
  *****  WEATHER ELSEWHERE ACROSS MINNESOTA  *****     
  
CITY           SKY/WX    TMP DP  RH WIND       PRES   REMARKS
DULUTH         SUNNY     50  46  86 W8        30.19R                  
INTRNTL FALLS  FOG       44  44 100 VRB3      30.14S VSB 1/2          
ELY            CLOUDY    46  45  93 SW5       30.16S FOG              
CLOQUET        CLEAR     46  45  93 W5        30.20S                  
BRAINERD       CLEAR     43  43 100 S6        30.24R                  
HIBBING        FOG       38  36  92 CALM      30.19S VSB 3/4          
ALEXANDRIA     CLEAR     50  47  89 SW7       30.25S                  
SAINT CLOUD    CLEAR     47  44  90 CALM      30.25S FOG              
MINNEAPOLIS    CLEAR     50  48  93 SW3       30.27R                  
$$

  *****  WEATHER ACROSS SOUTH DAKOTA  *****
  
CITY           SKY/WX    TMP DP  RH WIND       PRES   REMARKS
SIOUX FALLS    PTCLDY    45  45 100 CALM      30.28S                  
BROOKINGS      NOT AVBL                                               
WATERTOWN      CLEAR     44  42  93 SE6       30.25S                  
HURON          CLEAR     44  41  89 SE5       30.24S                  
SISSETON         N/A     54  47  77 W10       30.21S                  
ABERDEEN       CLEAR     41  39  93 S8        30.22F                  
MITCHELL       CLEAR     43  41  93 SE3       30.26S                  
PIERRE         CLEAR     48  42  80 SE9       30.17F                  
MOBRIDGE       CLEAR     50  48  93 SE10      30.14F                  
RAPID CITY     CLOUDY    53  40  61 SE7       30.11F                  
$$

  *****  SOME WEATHER IN NEARBY STATES *****
  
CITY           SKY/WX    TMP DP  RH WIND       PRES   REMARKS
GLASGOW MT     CLEAR     49  35  58 E15       29.96S                  
GREAT FALLS MT PTCLDY    49  43  80 SW8       29.94S                  
CHEYENNE WY    LGT RAIN  51  44  77 S7        30.23R                  
SCOTTSBLUFF NE MOCLDY    57  43  59 SE9       30.15F                  
OMAHA NE       PTCLDY    49  48  97 CALM      30.32S                  
DES MOINES IA  CLEAR     50  47  89 NW5       30.31S                  
DAVENPORT IA   SUNNY     45  43  93 CALM      30.30R                  
CHICAGO IL     MOSUNNY   48  40  73 N6        30.26R                  
EAU CLAIRE WI  SUNNY     47  45  93 SW5       30.24S                  
LA CROSSE WI   FOG       48  47  96 S6        30.27S VSB 1/4          
$$

  *****  SOME NATIONAL WEATHER *****
  
CITY           SKY/WX    TMP DP  RH WIND       PRES   REMARKS
LA GUARDIA NY  MOSUNNY   66  52  60 W14G24    29.83R                  
RALEIGH NC     MOSUNNY   67  51  56 N5        30.03R                  
ATLANTA GA     PTSUNNY   64  60  87 W5        30.06R                  
NEW ORLEANS LA MOSUNNY   77  73  87 CALM      30.03S                  
OKLAHOMA CITY  CLEAR     59  49  69 NE7       30.28R                  
ALBUQUERQUE NM CLOUDY    66  56  70 S7        30.30R                  
SALT LAKE CITY PTCLDY    61  56  83 W3        30.15R                  
LOS ANGELES CA PTCLDY    65  61  86 CALM      29.95S                  
BOISE ID       CLOUDY    64  56  75 CALM      30.04S                  
SEATTLE WA     CLOUDY    62  56  80 S7        29.98S                  
$$

*** WEATHER ACROSS MANITOBA...SASKATCHEWAN AND ONTARIO ***
                ***ONTARIO***
  
CITY           SKY/WX    TMP DP  RH WIND       PRES   REMARKS
GERALDTON      PTSUNNY   45  45 100 W5        29.99F                  
THUNDER BAY    NOT AVBL                                               
SIOUX LOOKOUT  PTCLDY    52  50  93 SW6       30.04S                  
TORONTO        CLOUDY    50  39  66 NW13G21   30.02R                  
BIG TROUT LK   LGT RAIN  50  48  93 W6        29.81F                  
PICKLE LAKE    PTSUNNY   50  46  87 W15G23    29.91F                  
DRYDEN         CLEAR     50  48  93 SW8       30.06F                  
KENORA         PTCLDY    50  48  93 SW8       30.08S                  
$$      
                *** MANITOBA***
  
CITY           SKY/WX    TMP DP  RH WIND       PRES   REMARKS
BRANDON        CLEAR     41  41 100 NW7       30.09F                  
DAUPHIN        CLEAR     50  43  76 W7        30.01S                  
ISLAND LAKE    PTCLDY    54  50  87 CALM      29.84S                  
PILOT MOUND    NOT AVBL                                               
THE PAS        PTCLDY    57  46  67 W10       29.89                   
THOMPSON       PTCLDY    45  45 100 NW5       29.84R                  
WINNIPEG       CLEAR     50  45  81 SW8       30.07S                  
LYNN LAKE      CLEAR     43  43 100 VRB2      29.85S                  
CHURCHILL      CLOUDY    41  39  93 NE12      29.95R                  
GILLAM         FOG      N/A N/A N/A NE7         N/A  VSB 3/4          
$$
                ***SASKATCHEWAN***
  
CITY           SKY/WX    TMP DP  RH WIND       PRES   REMARKS
ESTEVAN        CLEAR     45  41  87 SE5       30.06F                  
KINDERSLEY     PTCLDY    48  43  81 SE10      29.85F                  
LLOYDMINSTER   NOT AVBL                                               
PRINCE ALBERT  PTCLDY    39  39 100 E5        29.89F                  
REGINA         CLEAR     43  37  81 SE9       30.00F                  
YORKTON        CLEAR     48  41  76 S9        30.02S                  

Return to Home page


Western Regional Climate Center, wrcc@dri.edu